datetime,power release volume
2012-06-07,631.54298
2012-06-08,632.48843
2012-06-09,632.13058
2012-06-10,630.79091
2012-06-11,630.49174
2012-06-12,630.70744
2012-06-13,631.29917
2012-06-14,631.01157
2012-06-15,630.32314
2012-06-16,630.20826
2012-06-17,630.89008
2012-06-18,644.69008
2012-06-19,654.88843
2012-06-20,652.84959
2012-06-21,659.49421
2012-06-22,660.34876
2012-06-23,660.51322
2012-06-24,660.02975
2012-06-25,659.60413
2012-06-26,659.52727
2012-06-27,657.86694
2012-06-28,658.13636
2012-06-29,941.0281
2012-06-30,1206.68264
2012-07-01,1203.97686
2012-07-02,1203.46529
2012-07-03,1212.20413
2012-07-04,1220.25537
2012-07-05,1217.55124
2012-07-06,1220.9438
2012-07-07,1229.88926
2012-07-08,1230.31074
2012-07-09,1255.65372
2012-07-10,1289.11322
2012-07-11,1287.64959
2012-07-12,1292.52645
2012-07-13,1293.51901
2012-07-14,1290.67645
2012-07-15,1292.04215
2012-07-16,1293.59421
2012-07-17,1295.66116
2012-07-18,1302.43636
2012-07-19,1304.10744
2012-07-20,1302.36612
2012-07-21,1305.19421
2012-07-22,1306.8124
2012-07-23,1305.44545
2012-07-24,1308.10661
2012-07-25,1317.67769
2012-07-26,1320.37769
2012-07-27,1324.42314
2012-07-28,1326.66364
2012-07-29,1329.77438
2012-07-30,1330.57438
2012-07-31,1337.25868
2012-08-01,1341.77025
2012-08-02,1345.09339
2012-08-03,1348.9438
2012-08-04,1352.60248
2012-08-05,1355.38595
2012-08-06,1357.29917
2012-08-07,1358.79917
2012-08-08,1360.77603
2012-08-09,1366.04711
2012-08-10,1368.40826
2012-08-11,1366.48099
2012-08-12,1365.06033
2012-08-13,1364.17603
2012-08-14,1364.91818
2012-08-15,1367.20083
2012-08-16,1368.93554
2012-08-17,1366.61736
2012-08-18,1365.13388
2012-08-19,1366.69421
2012-08-20,1365.64215
2012-08-21,1206.30496
2012-08-22,1093.33802
2012-08-23,1093.6562
2012-08-24,1091.2314
2012-08-25,1088.97603
2012-08-26,1088.56364
2012-08-27,1087.26777
2012-08-28,1087.37603
2012-08-29,1084.56612
2012-08-30,817.69669
2012-08-31,683.55124
2012-09-01,682.79752
2012-09-02,681.43388
2012-09-03,681.15702
2012-09-04,680.79256
2012-09-05,680.12562
2012-09-06,679.97603
2012-09-07,679.7438
2012-09-08,679.1595
2012-09-09,679.02479
2012-09-10,678.72727
2012-09-11,678.16033
2012-09-12,676.67438
2012-09-13,676.05289
2012-09-14,675.86777
2012-09-15,675.54298
2012-09-16,675.05372
2012-09-17,600.57934
2012-09-18,545.53719
2012-09-19,544.0281
2012-09-20,542.6719
2012-09-21,541.1562
2012-09-22,540.47521
2012-09-23,540.01322
2012-09-24,536.60331
2012-09-25,536.32397
2012-09-26,533.84876
2012-09-27,533.65868
2012-09-28,533.5314
2012-09-29,533.14959
2012-09-30,532.85455
2012-10-01,500.60579
2012-10-02,477.51157
2012-10-03,476.74215
2012-10-04,476.14876
2012-10-05,475.66198
2012-10-06,475.4843
2012-10-07,475.29008
2012-10-08,475.0719
2012-10-09,475.01322
2012-10-10,474.84711
2012-10-11,475.38678
2012-10-12,476.49256
2012-10-13,476.07355
2012-10-14,475.67934
2012-10-15,374.3843
2012-10-16,299.53058
2012-10-17,297.23471
2012-10-18,297.1719
2012-10-19,297.13388
2012-10-20,297.02066
2012-10-21,296.94463
2012-10-22,296.96529
2012-10-23,296.79669
2012-10-24,296.48017
2012-10-25,295.93058
2012-10-26,295.1686
2012-10-27,294.99504
2012-10-28,295.00165
2012-10-29,294.96281
2012-10-30,294.90909
2012-10-31,294.87438
2012-11-01,295.86033
2012-11-02,297.3157
2012-11-03,297.38017
2012-11-04,297.89917
2012-11-05,298.72975
2012-11-06,299.34793
2012-11-07,300.07025
2012-11-08,300.85207
2012-11-09,300.81818
2012-11-10,299.42562
2012-11-11,296.99669
2012-11-12,296.76364
2012-11-13,296.90744
2012-11-14,297.40165
2012-11-15,297.80661
2012-11-16,298.09174
2012-11-17,298.01818
2012-11-18,298.07521
2012-11-19,298.46612
2012-11-20,299.17107
2012-11-21,299.89504
2012-11-22,299.99587
2012-11-23,299.85537
2012-11-24,300.06777
2012-11-25,299.92149
2012-11-26,298.22397
2012-11-27,298.4719
2012-11-28,299.03636
2012-11-29,299.70579
2012-11-30,299.16529
2012-12-01,297.15537
2012-12-02,297.23719
2012-12-03,296.61157
2012-12-04,296.70248
2012-12-05,297.21901
2012-12-06,197.93141
2012-12-07,296.27851
2012-12-08,296.10579
2012-12-09,295.69752
2012-12-10,295.5438
2012-12-11,295.45372
2012-12-12,295.42231
2012-12-13,295.43388
2012-12-14,295.43306
2012-12-15,295.33802
2012-12-16,295.26116
2012-12-17,295.2
2012-12-18,295.09752
2012-12-19,294.74298
2012-12-20,294.39091
2012-12-21,294.22562
2012-12-22,294.2124
2012-12-23,294.17934
2012-12-24,294.12231
2012-12-25,294.01488
2012-12-26,293.97025
2012-12-27,293.9
2012-12-28,293.85372
2012-12-29,293.63884
2012-12-30,293.50413
2012-12-31,293.20496
2013-01-01,293.11322
2013-01-02,292.88678
2013-01-03,294.95124
2013-01-04,296.4
2013-01-05,296.35041
2013-01-06,296.48347
2013-01-07,296.47603
2013-01-08,296.74545
2013-01-09,297.52645
2013-01-10,298.50496
2013-01-11,298.20413
2013-01-12,297.8281
2013-01-13,297.53223
2013-01-14,297.18926
2013-01-15,297.03223
2013-01-16,297.06364
2013-01-17,297.05041
2013-01-18,297.00579
2013-01-19,297.01488
2013-01-20,296.93719
2013-01-21,296.93636
2013-01-22,296.83306
2013-01-23,296.84959
2013-01-24,297.13388
2013-01-25,227.27107
2013-01-26,148.71405
2013-01-27,151.4438
2013-01-28,299.10579
2013-01-29,299.09504
2013-01-30,299.04463
2013-01-31,176.07769
2013-02-01,175.08678
2013-02-02,298.43967
2013-02-03,299.02893
2013-02-04,299.53967
2013-02-05,299.50413
2013-02-06,299.91818
2013-02-07,300.17851
2013-02-08,300.11901
2013-02-09,300.02727
2013-02-10,299.81074
2013-02-11,299.5686
2013-02-12,300.9314
2013-02-13,302.54628
2013-02-14,297.14215
2013-02-15,294.64463
2013-02-16,294.68595
2013-02-17,294.67769
2013-02-18,293.93223
2013-02-19,293.84628
2013-02-20,294.04463
2013-02-21,293.73802
2013-02-22,293.31901
2013-02-23,293.07107
2013-02-24,292.93554
2013-02-25,292.58017
2013-02-26,292.36612
2013-02-27,292.30661
2013-02-28,292.19587
2013-03-01,292.31818
2013-03-02,292.38182
2013-03-03,292.66612
2013-03-04,292.47438
2013-03-05,292.39752
2013-03-06,292.51901
2013-03-07,292.71901
2013-03-08,292.78017
2013-03-09,292.72893
2013-03-10,292.5124
2013-03-11,292.6281
2013-03-12,293.02893
2013-03-13,293.26116
2013-03-14,293.49091
2013-03-15,293.67355
2013-03-16,293.93802
2013-03-17,293.7438
2013-03-18,293.21901
2013-03-19,293.19669
2013-03-20,293.27273
2013-03-21,292.96446
2013-03-22,292.67934
2013-03-23,292.20413
2013-03-24,291.85785
2013-03-25,291.70248
2013-03-26,291.76529
2013-03-27,292.39256
2013-03-28,293.09174
2013-03-29,293.4405
2013-03-30,293.47769
2013-03-31,293.4405
2013-04-01,293.7
2013-04-02,292.92314
2013-04-03,293.05455
2013-04-04,293.52893
2013-04-05,293.92066
2013-04-06,293.68017
2013-04-07,293.74876
2013-04-08,293.62645
2013-04-09,291.87686
2013-04-10,291.41405
2013-04-11,291.94959
2013-04-12,292.73141
2013-04-13,293.30992
2013-04-14,292.54132
2013-04-15,292.5
2013-04-16,292.32562
2013-04-17,291.92975
2013-04-18,291.80331
2013-04-19,301.78264
2013-04-20,305.7438
2013-04-21,306.11983
2013-04-22,338.40331
2013-04-23,381.59091
2013-04-24,396.78264
2013-04-25,397.86198
2013-04-26,398.59917
2013-04-27,398.9438
2013-04-28,399.32562
2013-04-29,399.24628
2013-04-30,399.34876
2013-05-01,429.79504
2013-05-02,448.00579
2013-05-03,448.1281
2013-05-04,448.22066
2013-05-05,472.83388
2013-05-06,497.15868
2013-05-07,497.30165
2013-05-08,497.82314
2013-05-09,498.17686
2013-05-10,498.17107
2013-05-11,498.44711
2013-05-12,499.09669
2013-05-13,500.10992
2013-05-14,529.71322
2013-05-15,553.84876
2013-05-16,558.13967
2013-05-17,572.04463
2013-05-18,591.47025
2013-05-19,592.42066
2013-05-20,593.13967
2013-05-21,593.91322
2013-05-22,594.67438
2013-05-23,595.55702
2013-05-24,596.66942
2013-05-25,597.92645
2013-05-26,599.30496
2013-05-27,600.79256
2013-05-28,602.27107
2013-05-29,603.4314
2013-05-30,604.25785
2013-05-31,604.81405
2013-06-01,605.28926
2013-06-02,605.95702
2013-06-03,606.49835
2013-06-04,607.57438
2013-06-05,608.35289
2013-06-06,606.67355
2013-06-07,605.96033
2013-06-08,606.42149
2013-06-09,607.29835
2013-06-10,608.71157
2013-06-11,608.65207
2013-06-12,608.73223
2013-06-13,608.8843
2013-06-14,608.39669
2013-06-15,608.36529
2013-06-16,608.45372
2013-06-17,608.60331
2013-06-18,608.57769
2013-06-19,607.90331
2013-06-20,607.50661
2013-06-21,607.29669
2013-06-22,607.07438
2013-06-23,606.91405
2013-06-24,606.64711
2013-06-25,606.45207
2013-06-26,606.5719
2013-06-27,613.22893
2013-06-28,617.8314
2013-06-29,617.27934
2013-06-30,617.45124
2013-07-01,670.22727
2013-07-02,701.51074
2013-07-03,700.82727
2013-07-04,699.90744
2013-07-05,699.10744
2013-07-06,698.55041
2013-07-07,698.14132
2013-07-08,697.8562
2013-07-09,697.99669
2013-07-10,697.81736
2013-07-11,696.97686
2013-07-12,695.94959
2013-07-13,695.42562
2013-07-14,695.30661
2013-07-15,695.20413
2013-07-16,646.06364
2013-07-17,693.12893
2013-07-18,692.89587
2013-07-19,692.66694
2013-07-20,692.49587
2013-07-21,691.98099
2013-07-22,691.26364
2013-07-23,690.94545
2013-07-24,689.71405
2013-07-25,689.46777
2013-07-26,689.23471
2013-07-27,688.06694
2013-07-28,687.2876
2013-07-29,686.96446
2013-07-30,687.56364
2013-07-31,687.47603
2013-08-01,687.54711
2013-08-02,687.1843
2013-08-03,686.87355
2013-08-04,686.40496
2013-08-05,686.07438
2013-08-06,685.4595
2013-08-07,684.55041
2013-08-08,683.82231
2013-08-09,683.30661
2013-08-10,682.82562
2013-08-11,682.43058
2013-08-12,681.56364
2013-08-13,680.46198
2013-08-14,680.43058
2013-08-15,679.79504
2013-08-16,679.22149
2013-08-17,678.57438
2013-08-18,678.0719
2013-08-19,677.59917
2013-08-20,677.06694
2013-08-21,676.59008
2013-08-22,676.11157
2013-08-23,675.40413
2013-08-24,675.08182
2013-08-25,674.66116
2013-08-26,674.1438
2013-08-27,673.83058
2013-08-28,673.51818
2013-08-29,673.18099
2013-08-30,672.74298
2013-08-31,672.23388
2013-09-01,671.46529
2013-09-02,670.98512
2013-09-03,590.42231
2013-09-04,546.50083
2013-09-05,546.17686
2013-09-06,545.90496
2013-09-07,545.43223
2013-09-08,544.99339
2013-09-09,544.58595
2013-09-10,522.90661
2013-09-11,545.3719
2013-09-12,545.17769
2013-09-13,545.0124
2013-09-14,544.78678
2013-09-15,544.53554
2013-09-16,513.57521
2013-09-17,432.54545
2013-09-18,487.86281
2013-09-19,494.78182
2013-09-20,454.82066
2013-09-21,427.14545
2013-09-22,426.90579
2013-09-23,426.72397
2013-09-24,426.50826
2013-09-25,425.92645
2013-09-26,425.51322
2013-09-27,425.39339
2013-09-28,425.3124
2013-09-29,425.22397
2013-09-30,423.84515
2013-10-01,411.77743
2013-10-02,398.82659
2013-10-03,396.40826
2013-10-04,396.31983
2013-10-05,396.19587
2013-10-06,395.99008
2013-10-07,395.80579
2013-10-08,395.69504
2013-10-09,395.56777
2013-10-10,349.17769
2013-10-11,307.99008
2013-10-12,307.84876
2013-10-13,307.7595
2013-10-14,307.70165
2013-10-15,307.63388
2013-10-16,307.40413
2013-10-17,307.25372
2013-10-18,307.18595
2013-10-19,307.15537
2013-10-20,307.15785
2013-10-21,307.13719
2013-10-22,307.06777
2013-10-23,301.01736
2013-10-24,298.02231
2013-10-25,297.97934
2013-10-26,297.91488
2013-10-27,297.84463
2013-10-28,297.84876
2013-10-29,297.81157
2013-10-30,297.66198
2013-10-31,297.5157
2013-11-01,297.54463
2013-11-02,297.5
2013-11-03,297.34711
2013-11-04,296.54132
2013-11-05,295.43967
2013-11-06,295.33306
2013-11-07,299.91653
2013-11-08,305.76116
2013-11-09,305.47355
2013-11-10,304.54793
2013-11-11,303.54215
2013-11-12,298.02149
2013-11-13,294.80083
2013-11-14,294.14215
2013-11-15,293.78017
2013-11-16,293.2281
2013-11-17,293.14298
2013-11-18,293.00579
2013-11-19,293.16281
2013-11-20,293.08264
2013-11-21,292.73554
2013-11-22,292.0438
2013-11-23,291.81983
2013-11-24,291.80744
2013-11-25,291.70579
2013-11-26,291.76033
2013-11-27,291.90165
2013-11-28,292.01157
2013-11-29,292.09256
2013-11-30,291.95041
2013-12-01,291.83141
2013-12-02,291.7405
2013-12-03,291.57273
2013-12-04,290.66116
2013-12-05,289.29504
2013-12-06,288.46777
2013-12-07,288.19339
2013-12-08,288.0157
2013-12-09,287.77686
2013-12-10,287.07521
2013-12-11,286.79421
2013-12-12,286.7157
2013-12-13,286.62975
2013-12-14,286.61653
2013-12-15,286.49174
2013-12-16,286.49421
2013-12-17,286.41818
2013-12-18,286.43223
2013-12-19,286.45399
2013-12-20,286.25455
2013-12-21,286.28512
2013-12-22,263.13967
2013-12-23,183.16942
2013-12-24,287.55124
2013-12-25,286.69421
2013-12-26,286.3281
2013-12-27,286.28843
2013-12-28,286.5438
2013-12-29,286.37438
2013-12-30,286.13802
2013-12-31,286.34132
2014-01-01,286.74793
2014-01-02,286.66694
2014-01-03,286.55758
2014-01-04,285.78182
2014-01-05,285.22562
2014-01-06,284.82562
2014-01-07,284.70165
2014-01-08,284.80496
2014-01-09,284.8281
2014-01-10,284.76942
2014-01-11,284.77438
2014-01-12,284.95785
2014-01-13,284.8405
2014-01-14,284.85702
2014-01-15,284.8843
2014-01-16,284.68264
2014-01-17,284.55868
2014-01-18,284.50083
2014-01-19,284.52645
2014-01-20,284.53306
2014-01-21,284.48926
2014-01-22,284.40661
2014-01-23,284.33719
2014-01-24,284.12893
2014-01-25,284.09752
2014-01-26,284.1737
2014-01-27,284.15935
2014-01-28,284.12149
2014-01-29,284.16446
2014-01-30,284.11653
2014-01-31,284.0562
2014-02-01,283.87603
2014-02-02,283.69917
2014-02-03,283.66694
2014-02-04,283.58595
2014-02-05,283.4405
2014-02-06,283.26694
2014-02-07,283.33719
2014-02-08,283.30331
2014-02-09,283.41901
2014-02-10,283.60992
2014-02-11,283.55124
2014-02-12,283.39752
2014-02-13,283.52314
2014-02-14,283.84711
2014-02-15,284.07769
2014-02-16,284.36364
2014-02-17,284.13388
2014-02-18,284.12479
2014-02-19,284.12314
2014-02-20,283.79256
2014-02-21,283.89256
2014-02-22,284.07438
2014-02-23,284.26006
2014-02-24,284.74545
2014-02-25,284.93884
2014-02-26,285.5405
2014-02-27,285.59008
2014-02-28,285.39008
2014-03-01,285.3314
2014-03-02,285.40083
2014-03-03,286.09504
2014-03-04,286.59091
2014-03-05,286.44298
2014-03-06,286.72066
2014-03-07,286.85455
2014-03-08,286.87769
2014-03-09,287.06281
2014-03-10,287.46777
2014-03-11,287.46777
2014-03-12,287.38678
2014-03-13,288.06171
2014-03-14,289.43636
2014-03-15,290.67686
2014-03-16,291.10413
2014-03-17,292.26446
2014-03-18,292.04298
2014-03-19,292.01157
2014-03-20,293.16942
2014-03-21,294.1876
2014-03-22,294.9281
2014-03-23,295.46694
2014-03-24,296.70661
2014-03-25,298.02397
2014-03-26,299.10083
2014-03-27,297.70744
2014-03-28,287.28512
2014-03-29,287.26446
2014-03-30,287.74628
2014-03-31,287.77934
2014-04-01,288.16281
2014-04-02,288.27355
2014-04-03,288.91653
2014-04-04,290.57438
2014-04-05,292.05868
2014-04-06,289.96942
2014-04-07,289.23802
2014-04-08,291.61157
2014-04-09,293.39504
2014-04-10,285.6871
2014-04-11,286.27603
2014-04-12,287.56033
2014-04-13,288.87107
2014-04-14,289.81322
2014-04-15,294.0124
2014-04-16,302.32231
2014-04-17,303.81818
2014-04-18,306.11074
2014-04-19,308.09587
2014-04-20,309.96281
2014-04-21,365.99421
2014-04-22,422.83802
2014-04-23,438.59174
2014-04-24,440.64793
2014-04-25,442.65124
2014-04-26,445.07107
2014-04-27,447.00413
2014-04-28,448.98017
2014-04-29,450.56694
2014-04-30,452.38182
2014-05-01,453.84876
2014-05-02,455.41405
2014-05-03,456.99504
2014-05-04,476.37107
2014-05-05,487.17025
2014-05-06,539.94545
2014-05-07,572.45868
2014-05-08,575.1562
2014-05-09,577.59835
2014-05-10,579.94793
2014-05-11,581.48264
2014-05-12,401.58595
2014-05-13,587.00992
2014-05-14,587.37355
2014-05-15,587.66694
2014-05-16,588.10496
2014-05-17,588.98678
2014-05-18,590.18017
2014-05-19,592.17438
2014-05-20,594.28843
2014-05-21,596.34132
2014-05-22,598.44628
2014-05-23,596.85455
2014-05-24,597.14545
2014-05-25,597.85537
2014-05-26,597.01653
2014-05-27,597.99587
2014-05-28,597.32562
2014-05-29,596.75207
2014-05-30,596.18347
2014-05-31,596.58182
2014-06-01,596.59008
2014-06-02,596.21322
2014-06-03,596.37107
2014-06-04,597.1876
2014-06-05,596.48926
2014-06-06,596.5405
2014-06-07,595.12645
2014-06-08,595.86116
2014-06-09,596.49587
2014-06-10,597.02231
2014-06-11,597.31736
2014-06-12,596.37521
2014-06-13,596.48017
2014-06-14,596.80165
2014-06-15,596.94876
2014-06-16,597.09091
2014-06-17,597.1562
2014-06-18,597.31281
2014-06-19,596.73471
2014-06-20,595.48843
2014-06-21,595.48512
2014-06-22,595.57686
2014-06-23,595.43967
2014-06-24,595.58678
2014-06-25,595.45455
2014-06-26,594.89008
2014-06-27,594.80661
2014-06-28,594.60083
2014-06-29,594.68843
2014-06-30,594.45041
2014-07-01,650.37934
2014-07-02,683.84463
2014-07-03,683.77769
2014-07-04,683.41322
2014-07-05,683.81157
2014-07-06,684.98512
2014-07-07,685.12314
2014-07-08,687.57686
2014-07-09,688.71405
2014-07-10,688.08595
2014-07-11,687.63058
2014-07-12,687.7314
2014-07-13,687.96033
2014-07-14,690.4281
2014-07-15,692.13306
2014-07-16,691.27107
2014-07-17,707.34895
2014-07-18,888.44857
2014-07-19,914.43802
2014-07-20,913.28512
2014-07-21,913.10248
2014-07-22,915.69339
2014-07-23,917.62645
2014-07-24,920.05207
2014-07-25,919.71736
2014-07-26,921.33471
2014-07-27,921.66033
2014-07-28,915.4405
2014-07-29,919.94959
2014-07-30,923.70992
2014-07-31,925.79256
2014-08-01,929.0719
2014-08-02,928.01488
2014-08-03,923.39917
2014-08-04,922.69835
2014-08-05,928.0205
2014-08-06,932.80165
2014-08-07,933.42893
2014-08-08,935.20165
2014-08-09,935.68182
2014-08-10,933.78182
2014-08-11,935.45785
2014-08-12,935.83884
2014-08-13,936.40083
2014-08-14,939.63058
2014-08-15,942.00413
2014-08-16,944.65909
2014-08-17,946.48701
2014-08-18,948.36257
2014-08-19,944.61074
2014-08-20,942.36694
2014-08-21,944.80248
2014-08-22,919.59917
2014-08-23,944.46364
2014-08-24,946.4843
2014-08-25,949.91736
2014-08-26,954.90909
2014-08-27,953.27769
2014-08-28,950.77686
2014-08-29,950.26529
2014-08-30,952.39091
2014-08-31,954.50413
2014-09-01,956.93113
2014-09-02,963.5405
2014-09-03,966.88182
2014-09-04,967.25785
2014-09-05,968.13595
2014-09-06,969.94132
2014-09-07,972.83306
2014-09-08,435.59256
2014-09-09,961.85083
2014-09-10,966.09174
2014-09-11,971.14959
2014-09-12,970.25372
2014-09-13,974.06033
2014-09-14,979.09917
2014-09-15,975.53223
2014-09-16,978.84545
2014-09-17,981.59339
2014-09-18,975.50083
2014-09-19,971.55207
2014-09-20,972.15868
2014-09-21,971.99835
2014-09-22,971.49008
2014-09-23,974.58099
2014-09-24,975.59118
2014-09-25,978.06612
2014-09-26,974.87273
2014-09-27,934.18926
2014-09-28,975.89091
2014-09-29,978.96694
2014-09-30,983.30165
2014-10-01,605.88099
2014-10-02,398.32645
2014-10-03,398.31736
2014-10-04,398.34628
2014-10-05,398.38017
2014-10-06,398.35372
2014-10-07,398.37355
2014-10-08,398.35372
2014-10-09,398.3595
2014-10-10,350.80165
2014-10-11,316.76198
2014-10-12,316.74298
2014-10-13,316.7562
2014-10-14,316.76198
2014-10-15,316.75537
2014-10-16,316.73967
2014-10-17,316.75372
2014-10-18,316.76281
2014-10-19,316.77934
2014-10-20,311.13471
2014-10-21,297.40826
2014-10-22,297.39256
2014-10-23,297.43802
2014-10-24,297.38182
2014-10-25,297.39504
2014-10-26,297.3562
2014-10-27,297.28843
2014-10-28,297.21488
2014-10-29,297.26116
2014-10-30,297.2405
2014-10-31,297.22314
2014-11-01,297.27686
2014-11-02,297.15111
2014-11-03,297.10509
2014-11-04,296.38264
2014-11-05,296.11653
2014-11-06,296.1157
2014-11-07,296.18264
2014-11-08,296.07603
2014-11-09,296.09421
2014-11-10,296.07355
2014-11-11,295.89504
2014-11-12,293.43306
2014-11-13,292.35702
2014-11-14,292.29835
2014-11-15,292.33967
2014-11-16,291.83719
2014-11-17,291.56364
2014-11-18,293.97851
2014-11-19,295.84256
2014-11-20,291.08099
2014-11-21,287.17934
2014-11-22,287.19215
2014-11-23,287.01983
2014-11-24,287.05124
2014-11-25,286.96942
2014-11-26,287.03058
2014-11-27,287.15537
2014-11-28,287.18678
2014-11-29,287.10661
2014-11-30,287.13636
2014-12-01,287.13636
2014-12-02,287.16033
2014-12-03,287.16116
2014-12-04,287.12975
2014-12-05,287.18017
2014-12-06,287.20083
2014-12-07,287.19587
2014-12-08,287.16694
2014-12-09,287.21157
2014-12-10,287.15289
2014-12-11,287.15124
2014-12-12,287.1314
2014-12-13,287.23884
2014-12-14,287.22397
2014-12-15,286.87438
2014-12-16,286.69752
2014-12-17,286.62314
2014-12-18,286.62314
2014-12-19,286.57686
2014-12-20,286.53802
2014-12-21,286.47686
2014-12-22,286.52562
2014-12-23,285.80579
2014-12-24,285.17107
2014-12-25,284.9843
2014-12-26,284.61653
2014-12-27,283.72066
2014-12-28,283.36612
2014-12-29,283.23636
2014-12-30,281.25868
2014-12-31,279.69256
2015-01-01,279.35702
2015-01-02,279.40083
2015-01-03,279.41405
2015-01-04,279.48926
2015-01-05,279.7157
2015-01-06,284.99752
2015-01-07,287.61074
2015-01-08,287.65289
2015-01-09,287.67107
2015-01-10,287.6157
2015-01-11,287.72562
2015-01-12,287.7595
2015-01-13,287.76116
2015-01-14,287.70661
2015-01-15,287.62314
2015-01-16,287.51901
2015-01-17,287.53306
2015-01-18,287.53058
2015-01-19,287.53884
2015-01-20,287.51983
2015-01-21,287.4281
2015-01-22,287.20331
2015-01-23,287.02314
2015-01-24,287.05868
2015-01-25,287.08595
2015-01-26,287.16446
2015-01-27,183.77438
2015-01-28,282.80744
2015-01-29,295.33664
2015-01-30,297.09752
2015-01-31,297.14298
2015-02-01,295.90413
2015-02-02,293.10744
2015-02-03,293.08843
2015-02-04,293.43058
2015-02-05,294.13802
2015-02-06,294.68926
2015-02-07,295.7281
2015-02-08,297.01157
2015-02-09,294.49669
2015-02-10,289.84132
2015-02-11,290.56694
2015-02-12,186.91322
2015-02-13,294.47107
2015-02-14,292.86942
2015-02-15,296.02645
2015-02-16,295.63526
2015-02-17,290.73967
2015-02-18,292.8438
2015-02-19,296.8438
2015-02-20,300.19504
2015-02-21,295.86529
2015-02-22,290.41405
2015-02-23,290.14545
2015-02-24,290.24711
2015-02-25,291.80909
2015-02-26,293.59421
2015-02-27,295.02066
2015-02-28,293.43636
2015-03-01,290.03141
2015-03-02,290.49587
2015-03-03,291.4843
2015-03-04,292.42314
2015-03-05,288.57438
2015-03-06,286.6719
2015-03-07,288.16198
2015-03-08,290.64752
2015-03-09,293.05455
2015-03-10,289.87603
2015-03-11,288.4219
2015-03-12,290.52778
2015-03-13,293.03669
2015-03-14,292.20579
2015-03-15,289.43058
2015-03-16,292.25455
2015-03-17,289.42231
2015-03-18,288.09256
2015-03-19,290.06777
2015-03-20,293.56198
2015-03-21,294.33636
2015-03-22,287.25289
2015-03-23,289.47521
2015-03-24,287.80579
2015-03-25,286.71736
2015-03-26,288.7876
2015-03-27,287.30744
2015-03-28,287.06777
2015-03-29,291.6
2015-03-30,293.60909
2015-03-31,287.7314
2015-04-01,288.98264
2015-04-02,288.39256
2015-04-03,290.12066
2015-04-04,289.39256
2015-04-05,294.54959
2015-04-06,293.9157
2015-04-07,290.63719
2015-04-08,292.04298
2015-04-09,289.62562
2015-04-10,291.12562
2015-04-11,291.86777
2015-04-12,289.8405
2015-04-13,289.97851
2015-04-14,297.61736
2015-04-15,398.70661
2015-04-16,460.58099
2015-04-17,466.78264
2015-04-18,464.79752
2015-04-19,455.63306
2015-04-20,459.06859
2015-04-21,479.22204
2015-04-22,497.9405
2015-04-23,496.45868
2015-04-24,497.47769
2015-04-25,497.69366
2015-04-26,499.47355
2015-04-27,498.46942
2015-04-28,498.81818
2015-04-29,497.32562
2015-04-30,499.73802
2015-05-01,563.5438
2015-05-02,603.28843
2015-05-03,602.14463
2015-05-04,598.92149
2015-05-05,597.42645
2015-05-06,600.4876
2015-05-07,598.05041
2015-05-08,598.59669
2015-05-09,600.77851
2015-05-10,599.99008
2015-05-11,598.19587
2015-05-12,599.08843
2015-05-13,597.51901
2015-05-14,597.31818
2015-05-15,597.42314
2015-05-16,597.35537
2015-05-17,599.29835
2015-05-18,599.98678
2015-05-19,597.0281
2015-05-20,595.97851
2015-05-21,594.39256
2015-05-22,595.29587
2015-05-23,597.39669
2015-05-24,595.15785
2015-05-25,596.79835
2015-05-26,593.55372
2015-05-27,597.81818
2015-05-28,597.50413
2015-05-29,604.49091
2015-05-30,604.13719
2015-05-31,596.28678
2015-06-01,598.85455
2015-06-02,595.7124
2015-06-03,599.05124
2015-06-04,597.09256
2015-06-05,597.39752
2015-06-06,596.68182
2015-06-07,592.76033
2015-06-08,596.57355
2015-06-09,595.03554
2015-06-10,595.30799
2015-06-11,598.07521
2015-06-12,598.74876
2015-06-13,600.05785
2015-06-14,599.70909
2015-06-15,599.42562
2015-06-16,597.74959
2015-06-17,598.89174
2015-06-18,601.63636
2015-06-19,644.47521
2015-06-20,675.60331
2015-06-21,673.60413
2015-06-22,676.3405
2015-06-23,676.57686
2015-06-24,676.74132
2015-06-25,678.99421
2015-06-26,681.60661
2015-06-27,681.92727
2015-06-28,679.73884
2015-06-29,685.40909
2015-06-30,680.53719
2015-07-01,676.90744
2015-07-02,679.60579
2015-07-03,680.02562
2015-07-04,675.29421
2015-07-05,628.93554
2015-07-06,675.30496
2015-07-07,672.56529
2015-07-08,674.1157
2015-07-09,674.57851
2015-07-10,671.77273
2015-07-11,674.28182
2015-07-12,678.12397
2015-07-13,678.26198
2015-07-14,672.1314
2015-07-15,674.9686
2015-07-16,678.5281
2015-07-17,681.67686
2015-07-18,679.75702
2015-07-19,677.19917
2015-07-20,678.72479
2015-07-21,678.34876
2015-07-22,992.44793
2015-07-23,1206.03388
2015-07-24,1207.45868
2015-07-25,1202.33884